Tracking 29777 objects as of 6-Oct-2024
HD Live streaming from Space Station
objects crossing your sky now

STARLINK-3192

Track STARLINK-3192 now!
10-day predictions
STARLINK-3192 is classified as:


NORAD ID: 49767
Int'l Code: 2021-115AV
Perigee: 545.8 km
Apogee: 547.9 km
Inclination: 53.2 °
Period: 95.4 minutes
Semi major axis: 6917 km
RCS: Unknown
Launch date: December 2, 2021
Source: United States (US)
Launch site: AIR FORCE EASTERN TEST RANGE (AFETR)
Your satellite tracking list
Your tracking list is empty




NASA's NSSDC Master Catalog

Two Line Element Set (TLE):
1 49767U 21115AV  24280.39069031 -.00000340  00000-0 -32581-5 0  9993
2 49767  53.2187 310.3493 0001512 101.7548 258.3614 15.08837476158393
Source of the keplerian elements: AFSPC